Weather History for Rensselaer, IN

Change the Weather History Date:

Wednesday, September 18, 2013

  Actual Average (KVPZ) Record (KVPZ)
Temperature  
Mean Temperature 70 °F 63 °F  
Max Temperature 82 °F 74 °F 89 °F (2007)
Min Temperature 57 °F 52 °F 43 °F (2009)
Degree Days  
Heating Degree Days 0 4  
Month to date heating degree days 39  
Since 1 July heating degree days 56  
Cooling Degree Days 4 2  
Month to date cooling degree days 53  
Year to date cooling degree days 689  
Growing Degree Days 20 (Base 50)    
Moisture  
Dew Point 59 °F    
Average Humidity 73    
Maximum Humidity 94    
Minimum Humidity 48    
Precipitation  
Precipitation 0.13 in 0.09 in 1.94 in (2013)
Month to date precipitation 1.98  
Year to date precipitation 27.52  
Sea Level Pressure  
Sea Level Pressure 30.07 in    
Wind  
Wind Speed 5 mph (SSE)    
Max Wind Speed 17 mph    
Max Gust Speed 25 mph    
Visibility 10 miles    
Events Rain , Thunderstorm    
T = Trace of Precipitation, MM = Missing Value Source: NWS Daily Summary

Daily Weather History Graph

Daily Weather History Graph

Search for Another Location

Airport:

Trip Planner

Search our weather history database for the weather conditions in past years. The results will help you decide how hot, cold, wet, or windy it might be!

Date:

Astronomy

Sep. 18, 2013 Rise Set
Actual Time 6:32 AM CDT 6:52 PM CDT
Civil Twilight 6:05 AM CDT 7:19 PM CDT
Nautical Twilight 5:32 AM CDT 7:51 PM CDT
Astronomical Twilight 4:59 AM CDT 8:24 PM CDT
Moon 6:14 PM CDT (9/18) 5:34 AM CDT (9/18)
Length of Visible Light 13h 14m
Length of Day
12h 19m
Waxing Gibbous, 99% of the Moon is Illuminated
Sep 18
Waxing Gibbous
Sep 19
Full
Sep 26
Last Quarter
Oct 4
New
Oct 11
First Quarter

Hourly Weather History & Observations

Time (CDT) Temp. Heat Index Dew Point Humidity Pressure Visibility Wind Dir Wind Speed Gust Speed Precip Events Conditions
12:15 AM 60.8 °F - 51.8 °F 72% 30.14 in 10.0 mi ESE 5.8 mph - N/A   Overcast
12:35 AM 60.8 °F - 51.8 °F 72% 30.14 in 10.0 mi ESE 5.8 mph - N/A   Mostly Cloudy
12:55 AM 60.8 °F - 51.8 °F 72% 30.13 in 10.0 mi ESE 6.9 mph - N/A Rain Light Rain
1:15 AM 59.0 °F - 53.6 °F 82% 30.13 in 10.0 mi SE 8.1 mph - 0.01 in Rain Light Rain
1:35 AM 59.0 °F - 53.6 °F 82% 30.13 in 10.0 mi SE 3.5 mph - 0.02 in Rain Light Rain
1:55 AM 59.0 °F - 53.6 °F 82% 30.14 in 10.0 mi SSE 3.5 mph - 0.02 in   Overcast
2:15 AM 59.0 °F - 53.6 °F 82% 30.13 in 10.0 mi Calm Calm - N/A   Mostly Cloudy
2:35 AM 59.0 °F - 55.4 °F 88% 30.13 in 10.0 mi Calm Calm - N/A Rain Light Rain
2:55 AM 59.0 °F - 55.4 °F 88% 30.12 in 10.0 mi ESE 3.5 mph - N/A Rain Light Rain
3:15 AM 59.0 °F - 55.4 °F 88% 30.12 in 10.0 mi SE 3.5 mph - N/A   Overcast
3:35 AM 59.0 °F - 55.4 °F 88% 30.11 in 10.0 mi SE 3.5 mph - N/A   Mostly Cloudy
3:55 AM 59.0 °F - 55.4 °F 88% 30.12 in 10.0 mi Calm Calm - N/A   Scattered Clouds
4:15 AM 59.0 °F - 55.4 °F 88% 30.12 in 10.0 mi Calm Calm - N/A   Mostly Cloudy
4:35 AM 57.2 °F - 55.4 °F 94% 30.11 in 10.0 mi Calm Calm - N/A   Mostly Cloudy
4:55 AM 59.0 °F - 55.4 °F 88% 30.11 in 10.0 mi Calm Calm - N/A   Mostly Cloudy
5:15 AM 57.2 °F - 55.4 °F 94% 30.11 in 10.0 mi Calm Calm - N/A   Mostly Cloudy
5:35 AM 59.0 °F - 55.4 °F 88% 30.11 in 10.0 mi Calm Calm - N/A   Overcast
5:55 AM 59.0 °F - 55.4 °F 88% 30.12 in 10.0 mi Calm Calm - N/A   Overcast
6:15 AM 59.0 °F - 55.4 °F 88% 30.12 in 10.0 mi Calm Calm - N/A   Overcast
6:35 AM 59.0 °F - 57.2 °F 94% 30.13 in 7.0 mi East 3.5 mph - N/A   Overcast
6:55 AM 59.0 °F - 55.4 °F 88% 30.13 in 10.0 mi East 3.5 mph - N/A   Overcast
7:15 AM 59.0 °F - 55.4 °F 88% 30.13 in 10.0 mi Calm Calm - N/A   Overcast
7:35 AM 59.0 °F - 57.2 °F 94% 30.13 in 10.0 mi ESE 3.5 mph - N/A   Overcast
7:55 AM 60.8 °F - 57.2 °F 88% 30.13 in 10.0 mi ESE 3.5 mph - N/A   Overcast
8:15 AM 60.8 °F - 57.2 °F 88% 30.13 in 10.0 mi Calm Calm - N/A   Overcast
8:35 AM 60.8 °F - 57.2 °F 88% 30.13 in 10.0 mi Calm Calm - N/A   Overcast
8:55 AM 62.6 °F - 57.2 °F 82% 30.13 in 10.0 mi SE 3.5 mph - N/A   Overcast
9:15 AM 64.4 °F - 59.0 °F 83% 30.12 in 10.0 mi SSE 3.5 mph - N/A   Mostly Cloudy
9:35 AM 64.4 °F - 59.0 °F 83% 30.12 in 10.0 mi SSE 3.5 mph - N/A   Mostly Cloudy
9:55 AM 68.0 °F - 59.0 °F 73% 30.12 in 10.0 mi SSE 4.6 mph - N/A   Scattered Clouds
10:15 AM 69.8 °F - 59.0 °F 68% 30.11 in 10.0 mi SSE 6.9 mph - N/A   Scattered Clouds
10:35 AM 69.8 °F - 59.0 °F 68% 30.11 in 10.0 mi South 6.9 mph - N/A   Mostly Cloudy
10:55 AM 73.4 °F - 59.0 °F 61% 30.10 in 10.0 mi SSE 9.2 mph - N/A   Mostly Cloudy
11:15 AM 73.4 °F - 59.0 °F 61% 30.10 in 10.0 mi South 9.2 mph - N/A   Mostly Cloudy
11:35 AM 75.2 °F - 59.0 °F 57% 30.10 in 10.0 mi SSW 10.4 mph 16.1 mph N/A   Overcast
11:55 AM 77.0 °F - 59.0 °F 54% 30.09 in 10.0 mi SSW 9.2 mph - N/A   Mostly Cloudy
12:15 PM 77.0 °F - 57.2 °F 50% 30.09 in 10.0 mi SSW 12.7 mph - N/A   Mostly Cloudy
12:35 PM 77.0 °F - 59.0 °F 54% 30.08 in 10.0 mi South 6.9 mph - N/A   Mostly Cloudy
12:55 PM 77.0 °F - 59.0 °F 54% 30.08 in 10.0 mi South 8.1 mph - N/A   Mostly Cloudy
1:15 PM 78.8 °F - 59.0 °F 51% 30.07 in 10.0 mi SSW 4.6 mph - N/A   Mostly Cloudy
1:35 PM 78.8 °F - 59.0 °F 51% 30.06 in 10.0 mi South 10.4 mph - N/A   Scattered Clouds
1:55 PM 80.6 °F 81.1 °F 59.0 °F 48% 30.05 in 10.0 mi SSE 8.1 mph - N/A   Clear
2:15 PM 80.6 °F 81.5 °F 60.8 °F 51% 30.04 in 10.0 mi South 9.2 mph - N/A   Scattered Clouds
2:35 PM 80.6 °F 81.5 °F 60.8 °F 51% 30.03 in 10.0 mi South 11.5 mph 17.3 mph N/A   Mostly Cloudy
2:55 PM 80.6 °F 81.5 °F 60.8 °F 51% 30.02 in 10.0 mi South 6.9 mph - N/A   Mostly Cloudy
3:15 PM 80.6 °F 81.5 °F 60.8 °F 51% 30.01 in 10.0 mi South 6.9 mph - N/A   Mostly Cloudy
3:35 PM 82.4 °F 82.9 °F 60.8 °F 48% 30.00 in 10.0 mi South 9.2 mph - N/A   Scattered Clouds
3:55 PM 80.6 °F 81.5 °F 60.8 °F 51% 30.00 in 10.0 mi South 5.8 mph - N/A   Clear
4:15 PM 80.6 °F 81.5 °F 60.8 °F 51% 30.00 in 10.0 mi South 4.6 mph - N/A   Scattered Clouds
4:35 PM 80.6 °F 81.5 °F 60.8 °F 51% 30.00 in 10.0 mi South 5.8 mph - N/A   Mostly Cloudy
4:55 PM 80.6 °F 81.5 °F 60.8 °F 51% 29.99 in 10.0 mi SSE 3.5 mph - N/A   Mostly Cloudy
5:15 PM 80.6 °F 81.5 °F 60.8 °F 51% 29.99 in 10.0 mi Calm Calm - N/A Thunderstorm Overcast
5:35 PM 78.8 °F - 62.6 °F 57% 29.99 in 10.0 mi South 3.5 mph - N/A   Overcast
5:55 PM 78.8 °F - 62.6 °F 57% 29.99 in 10.0 mi South 4.6 mph - N/A   Scattered Clouds
6:15 PM 77.0 °F - 62.6 °F 61% 29.99 in 10.0 mi South 4.6 mph - N/A Thunderstorm Scattered Clouds
6:35 PM 77.0 °F - 62.6 °F 61% 29.99 in 10.0 mi SE 4.6 mph - N/A Thunderstorm Scattered Clouds
6:55 PM 77.0 °F - 62.6 °F 61% 29.99 in 10.0 mi Calm Calm - N/A Thunderstorm Thunderstorm
7:15 PM 73.4 °F - 66.2 °F 78% 29.99 in 7.0 mi NE 11.5 mph 19.6 mph 0.03 in Rain , Thunderstorm Heavy Thunderstorms and Rain
7:35 PM 71.6 °F - 68.0 °F 88% 29.98 in 10.0 mi SE 6.9 mph - 0.03 in Thunderstorm Thunderstorm
7:55 PM 71.6 °F - 66.2 °F 83% 29.99 in 10.0 mi SSE 8.1 mph - 0.03 in   Scattered Clouds
8:15 PM 73.4 °F - 66.2 °F 78% 29.99 in 10.0 mi SSE 9.2 mph - N/A   Mostly Cloudy
8:35 PM 73.4 °F - 64.4 °F 73% 29.99 in 10.0 mi South 9.2 mph - N/A   Mostly Cloudy
8:55 PM 73.4 °F - 64.4 °F 73% 29.99 in 10.0 mi South 10.4 mph - N/A   Mostly Cloudy
9:15 PM 73.4 °F - 64.4 °F 73% 29.99 in 10.0 mi South 11.5 mph - N/A Thunderstorm Mostly Cloudy
9:35 PM 73.4 °F - 64.4 °F 73% 30.00 in 10.0 mi South 11.5 mph - N/A   Mostly Cloudy
9:55 PM 71.6 °F - 64.4 °F 78% 30.00 in 10.0 mi South 10.4 mph - N/A   Scattered Clouds
10:15 PM 71.6 °F - 66.2 °F 83% 30.01 in 10.0 mi South 4.6 mph - N/A Thunderstorm Mostly Cloudy
10:35 PM 71.6 °F - 66.2 °F 83% 30.04 in 10.0 mi North 10.4 mph - N/A Thunderstorm Overcast
10:55 PM 69.8 °F - 64.4 °F 83% 30.03 in 10.0 mi NNE 5.8 mph 16.1 mph N/A Thunderstorm Thunderstorm
11:15 PM 69.8 °F - 64.4 °F 83% 30.05 in 10.0 mi North 17.3 mph 25.3 mph N/A Thunderstorm Thunderstorm
11:35 PM 64.4 °F - 62.6 °F 94% 30.06 in 5.0 mi ESE 6.9 mph - 0.05 in Rain , Thunderstorm Heavy Thunderstorms and Rain
11:55 PM 64.4 °F - 62.6 °F 94% 30.04 in 7.0 mi Calm Calm - 0.08 in Rain , Thunderstorm Light Thunderstorms and Rain